Погода в Хаммерфесте

Норвегия     70°40′05″N   23°41′47″E
темп.,
°C
ветер,
м/с
пор.,
м/с
влажн.,
%
обл.,
%
осадки,
мм/ч
давл.,
гПа
погр.,
м
5 августа, чт
чт523:00+9зсз479480 0.1 1008334
02:00+9з6997100 1.2 1008521
05:00+9з4797100 2.1 1008310
08:00+10з569398 4.0 1009293
11:00+10юз458998 0.5 1009303
14:00+10зюз4886100 2.2 1011415
17:00+10зюз3490100 0.3 1012109
20:00+10зюз119080 0.3 101335
6 августа, пт
пт623:00+10всв119294 0.0 101318
02:00+10в119287 0.1 101410
05:00+10юв228760 0.0 101413
08:00+12вюв117775 0.0 1015130
11:00+13всв1171100 0.0 1015318
14:00+14ссв3373100 0.0 101584
17:00+13ссв337699 0.0 101571
20:00+13св01785 0.0 101412
7 августа, сб
сб723:00+12ююв2278100 0.0 101411
02:00+13ю4476100 0.0 101520
05:00+13ю337899 0.0 101520
08:00+14ю226958 0.0 101589
11:00+15ссз226531 0.0 1016318
14:00+14с227540 0.0 101697
17:00+14св34745 0.0 1017126
20:00+13св3378100 0.0 101727
8 августа, вс
вс823:00+13в227770 0.0 101813
02:00+13ю336819 0.0 101727
05:00+13ююв34705 0.0 101833
08:00+16ююв56615 0.0 1018167
11:00+17ю71054100 0.0 1018482
14:00+17ю711524 0.0 1017639
17:00+18ююв7105313 0.0 1017751
20:00+16ююв61057100 0.0 1016169
9 августа, пн
пн923:00+14юв61162100 0.0 1016229
02:00+13юв71163100 0.0 1015278
05:00+13юв9156797 0.0 1014401
08:00+13ююв6127377 0.0 1013362
11:00+15ююв6107121 0.0 1013364
14:00+16ю8126997 0.0 1013396
17:00+15ююв7117288 0.0 1013369
20:00+14ююв4677100 0.0 1013260